Regional Weather Roundup
Issued by NWS

Home | Current Version | Previous Version | Graphics & Text | Print | Product List | Glossary On
Versions: 1 2 3 4 5 6 7 8 9 10 11 12 13 14 15 16 17 18 19 20 21 22 23 24 25 26 27 28 29 30 31 32 33 34 35 36 37 38 39 40 41 42 43 44 45 46 47 48 49 50
000
ASUS45 KCYS 300310
RWRWY

WYOMING REGIONAL WEATHER ROUNDUP
NATIONAL WEATHER SERVICE CHEYENNE WY
800 PM MST THU JAN 29 2015

NOTE:  "FAIR" INDICATES FEW OR NO CLOUDS BELOW 12,000 FEET
WITH NO SIGNIFICANT WEATHER AND/OR OBSTRUCTIONS TO VISIBILITY.

WYZ001-300400-
YELLOWSTONE NATIONAL PARK

CITY           SKY/WX    TMP DP  RH WIND       PRES   REMARKS
LK YELLOWSTONE   N/A      9   5  84 CALM      30.36S
W YELLOWSTONE  NOT AVBL

$$
WYZ002>013-054>058-071-098>099-300400-
NORTHERN WYOMING

CITY           SKY/WX    TMP DP  RH WIND       PRES   REMARKS
JACKSON        CLEAR     23  21  93 NE6       30.34S WCI  16
CODY           FAIR      28  27  93 CALM      30.29S
GREYBULL       FAIR      28  27  96 NW3       30.30S
WORLAND        FAIR      35  27  72 CALM      30.29S
SHERIDAN       FAIR      25  20  81 CALM      30.25F
BUFFALO        FAIR      34  24  67 NW8       30.25F WCI  27
GILLETTE       FAIR      28  23  81 S7        30.29S WCI  21
HULETT           N/A    N/A N/A N/A MISG        N/A
NEWCASTLE      FAIR      32  19  59 SE6       30.34S WCI  26

$$
WYZ014>020-022>026-101>103-300400-
CENTRAL WYOMING

CITY           SKY/WX    TMP DP  RH WIND       PRES   REMARKS
BIG PINEY      FAIR      22  19  89 N9        30.33F WCI  12
PINEDALE       FAIR      18  16  93 NW9       30.34F WCI   6
DUBOIS         FAIR      28  19  69 NW3       30.29F
LANDER         FAIR      32  25  75 CALM      30.29F
RIVERTON       FAIR      34  27  75 NE5       30.30S WCI  30
CASPER         FAIR      30  26  85 W8        30.30F WCI  22
DOUGLAS        FAIR      31  22  69 SE9       30.33F WCI  23

$$
WYZ021-027>030-104>119-300400-
SOUTHERN WYOMING

CITY           SKY/WX    TMP DP  RH WIND       PRES   REMARKS
EVANSTON       FAIR      32  27  81 NE5       30.30S WCI  27
KEMMERER       FAIR      30  27  86 N10       30.31S WCI  21
FORT BRIDGER   FAIR      32  31  96 W3        30.34S
ROCK SPRINGS   FAIR      33  27  78 E5        30.30F WCI  29
DIXON          FAIR      32  29  88 CALM      30.33F
RAWLINS        FAIR      31  25  78 CALM      30.32S
SARATOGA       FAIR      28  27  93 CALM      30.32F
LARAMIE        FAIR      30  23  75 SE16      30.32S WCI  19
CHEYENNE       FAIR      32  19  58 S10       30.36F WCI  24
TORRINGTON     FAIR      32  21  64 SE9       30.36F WCI  24
PINE BLUFFS    FAIR      28  23  80 S8        30.38F WCI  20

$$



USA.gov is the U.S. government's official web portal to all federal, state and local government web resources and services.